sat.trackr.live / text

‹ back to catalog

CZ-4B R/B

NORAD 69738 · 2026-149B

ROCKET_BODY UNKNOWN UNKNOWN

§ Identity

Operator
Country
PRC
Launch date
2026-07-01
Launch site
JSC
Launch vehicle
Mass (kg)
RCS (m²)

External: N2YO · Heavens-Above · Gunter

§ Orbital elements

Epoch: 2026-07-30T22:24:20.645856Z

Period
100.69 min
Inclination
99.3224°
Eccentricity
0.0197641
Mean motion
14.30072535 rev/d
Perigee alt
649.8 km
Apogee alt
933.2 km
Semi-major
7,169.6 km
B*
4.6604e-5
RAAN
221.0779°
Arg perigee
284.6353°
Mean anomaly
73.2989°
Rev number
438

§ Raw data

CZ-4B R/B1 69738U 26149B   26211.93357229  .00000090  00000+0  46604-4 0  99992 69738  99.3224 221.0779 0197641 284.6353  73.2989 14.30072535  4384

JSON: /api/v1/satellites/69738 · /tle

For live sub-satellite position, see the globe view (requires WebGL).

§ Visibility from observer

Set your observer location to see the next 7 days of passes ≥ 10°. The values pass through the URL so the page stays shareable.

No JS? Fill the form by hand. The geolocation button needs JavaScript.